EW7966 Weather Reports


Display with metric or nautical units.
time (UTC)temp
F
wind
direction
speed
MPH
gust
MPH
rain 1hr
in
rain 24hr
in
rain mn
in
humidity
%
barometer
mb
20260904003002 82 155 10.0 17.0 0.00 0.00 0.00 22 999.0
20260904002005 82 166 12.0 18.0 0.00 0.00 0.00 22 1014.9
20260904001503 83 163 12.0 18.0 0.00 0.00 0.00 21 1014.9
20260904001501 83 163 11.0 18.0 0.00 0.00 0.00 21 999.0
20260904001006 83 182 12.0 18.0 0.00 0.00 0.00 21 1014.9
20260904000008 83 119 13.0 18.0 0.00 0.00 0.00 21 1015.0
20260904000003 83 119 13.0 18.0 0.00 0.00 0.00 21 999.1
20260903234502 84 202 6.0 20.0 0.00 0.00 0.00 19 998.9
20260903234004 84 145 12.0 20.0 0.00 0.00 0.00 21 1014.9
20260903233503 84 135 12.0 16.0 0.00 0.00 0.00 21 1015.0
20260903233006 84 166 10.0 16.0 0.00 0.00 0.00 19 1015.0
20260903233002 84 166 10.0 16.0 0.00 0.00 0.00 19 999.1
20260903232005 84 131 9.0 14.0 0.00 0.00 0.00 20 1015.0
20260903231502 84 126 8.0 14.0 0.00 0.00 0.00 20 999.1
20260903231006 84 131 8.0 14.0 0.00 0.00 0.00 20 1015.1
20260903230504 84 130 9.0 17.0 0.00 0.00 0.00 19 1015.0
20260903230006 85 137 10.0 17.0 0.00 0.00 0.00 19 999.1
20260903225504 84 150 11.0 14.0 0.00 0.00 0.00 19 1015.1
20260903225006 84 120 7.0 15.0 0.00 0.00 0.00 19 1015.2
20260903224504 84 149 8.0 15.0 0.00 0.00 0.00 18 1015.2
20260903224502 84 149 7.0 15.0 0.00 0.00 0.00 18 999.2
20260903224005 84 171 9.0 16.0 0.00 0.00 0.00 19 1015.4
20260903223503 84 121 10.0 16.0 0.00 0.00 0.00 18 1015.3
20260903223005 84 143 12.0 17.0 0.00 0.00 0.00 18 1015.3
20260903223003 84 143 12.0 17.0 0.00 0.00 0.00 18 999.3
20260903222503 84 133 13.0 19.0 0.00 0.00 0.00 20 1015.3
20260903222006 84 142 14.0 19.0 0.00 0.00 0.00 20 1015.4
20260903221504 84 156 13.0 21.0 0.00 0.00 0.00 20 1015.4
20260903221502 84 156 13.0 21.0 0.00 0.00 0.00 20 999.4
20260903221005 83 122 10.0 21.0 0.00 0.00 0.00 21 1015.5
20260903220505 84 106 10.0 19.0 0.00 0.00 0.00 22 1015.5
20260903220006 83 121 12.0 16.0 0.00 0.00 0.00 22 1015.6
20260903220002 83 121 12.0 16.0 0.00 0.00 0.00 22 999.6
20260903215504 83 122 10.0 16.0 0.00 0.00 0.00 20 1015.7
20260903215004 83 121 5.0 13.0 0.00 0.00 0.00 22 1015.7
20260903214502 83 69 8.0 15.0 0.00 0.00 0.00 21 999.8
20260903214005 83 95 9.0 15.0 0.00 0.00 0.00 21 1015.9
20260903213503 83 158 12.0 16.0 0.00 0.00 0.00 21 1015.9
20260903213005 83 133 6.0 11.0 0.00 0.00 0.00 22 1000.0
20260903212006 82 107 4.0 15.0 0.00 0.00 0.00 21 1016.0
20260903211504 83 117 7.0 15.0 0.00 0.00 0.00 21 1016.1
20260903211502 83 117 7.0 15.0 0.00 0.00 0.00 21 1000.2
20260903211004 83 101 10.0 13.0 0.00 0.00 0.00 23 1016.2
20260903210504 83 191 7.0 20.0 0.00 0.00 0.00 21 1016.2
20260903210006 83 138 9.0 20.0 0.00 0.00 0.00 22 1016.3
20260903210002 83 138 9.0 20.0 0.00 0.00 0.00 22 1000.3
20260903205504 83 115 8.0 14.0 0.00 0.00 0.00 23 1016.4
20260903204503 82 138 6.0 17.0 0.00 0.00 0.00 24 1016.5
20260903204005 83 94 13.0 17.0 0.00 0.00 0.00 21 1016.5
20260903203004 83 154 8.0 14.0 0.00 0.00 0.00 22 1000.8
20260903202504 83 145 11.0 14.0 0.00 0.00 0.00 23 1016.6
20260903202006 82 161 9.0 16.0 0.00 0.00 0.00 23 1016.6
20260903201504 82 151 10.0 16.0 0.00 0.00 0.00 21 1016.7
20260903200504 82 135 10.0 18.0 0.00 0.00 0.00 23 1016.7
20260903200008 82 124 14.0 18.0 0.00 0.00 0.00 23 1001.1
20260903195005 82 144 9.0 17.0 0.00 0.00 0.00 25 1016.9
20260903194504 81 97 10.0 17.0 0.00 0.00 0.00 25 1016.9
20260903194502 81 97 10.0 17.0 0.00 0.00 0.00 25 1001.3
20260903194005 81 111 11.0 17.0 0.00 0.00 0.00 24 1016.9
20260903193504 81 159 5.0 18.0 0.00 0.00 0.00 24 1017.0
20260903193005 81 140 11.0 17.0 0.00 0.00 0.00 24 1017.1
20260903193002 81 140 11.0 17.0 0.00 0.00 0.00 24 1001.5
20260903192503 81 128 12.0 16.0 0.00 0.00 0.00 24 1017.2
20260903192006 82 190 8.0 15.0 0.00 0.00 0.00 25 1017.2
20260903191503 82 144 7.0 15.0 0.00 0.00 0.00 24 1017.3
20260903191004 81 116 10.0 18.0 0.00 0.00 0.00 25 1017.3
20260903190002 82 180 8.0 16.0 0.00 0.00 0.00 22 1001.8
20260903185504 82 205 7.0 11.0 0.00 0.00 0.00 21 1017.5
20260903185005 81 205 5.0 12.0 0.00 0.00 0.00 22 1017.4
20260903184502 81 231 3.0 12.0 0.00 0.00 0.00 22 1002.0
20260903184006 82 254 5.0 11.0 0.00 0.00 0.00 24 1017.7
20260903183505 82 266 4.0 11.0 0.00 0.00 0.00 24 1017.8
20260903183007 81 211 6.0 12.0 0.00 0.00 0.00 24 1017.8
20260903183003 81 211 5.0 12.0 0.00 0.00 0.00 24 1002.2
20260903182507 81 239 5.0 12.0 0.00 0.00 0.00 22 1018.0
20260903182005 80 232 4.0 11.0 0.00 0.00 0.00 25 1018.0
20260903181503 80 294 4.0 14.0 0.00 0.00 0.00 24 1018.0
20260903180504 80 222 3.0 9.0 0.00 0.00 0.00 25 1018.2
20260903180007 80 155 6.0 10.0 0.00 0.00 0.00 24 1018.3
20260903180003 80 155 6.0 10.0 0.00 0.00 0.00 24 1002.7
20260903175503 79 212 3.0 13.0 0.00 0.00 0.00 26 1018.3
20260903175005 79 218 5.0 13.0 0.00 0.00 0.00 24 1018.4
20260903174506 79 241 6.0 13.0 0.00 0.00 0.00 25 1018.4
20260903174006 79 309 4.0 7.0 0.00 0.00 0.00 25 1018.4
20260903173504 79 210 5.0 10.0 0.00 0.00 0.00 25 1018.5
20260903173001 79 280 2.0 14.0 0.00 0.00 0.00 26 1002.8
20260903172504 79 258 8.0 18.0 0.00 0.00 0.00 25 1018.6
20260903172005 79 254 4.0 18.0 0.00 0.00 0.00 26 1018.5
20260903171504 79 306 6.0 11.0 0.00 0.00 0.00 26 1002.8
20260903171005 79 227 4.0 12.0 0.00 0.00 0.00 26 1018.5
20260903170504 79 311 4.0 8.0 0.00 0.00 0.00 26 1018.5
20260903170006 78 276 3.0 13.0 0.00 0.00 0.00 26 1018.5
20260903170002 78 276 2.0 13.0 0.00 0.00 0.00 26 1002.9
20260903164502 77 315 4.0 10.0 0.00 0.00 0.00 26 1002.9
20260903163006 77 269 4.0 12.0 0.00 0.00 0.00 28 1018.4
20260903163001 77 269 4.0 12.0 0.00 0.00 0.00 28 1002.8
20260903162504 77 307 5.0 12.0 0.00 0.00 0.00 26 1018.3
20260903161504 77 260 4.0 14.0 0.00 0.00 0.00 29 1018.3
20260903161502 77 260 3.0 14.0 0.00 0.00 0.00 29 1002.7
20260903161004 77 289 6.0 12.0 0.00 0.00 0.00 27 1018.3
20260903160504 76 313 2.0 12.0 0.00 0.00 0.00 27 1018.4
20260903160008 76 250 5.0 12.0 0.00 0.00 0.00 29 1002.8
20260903155005 76 280 4.0 13.0 0.00 0.00 0.00 31 1018.4
20260903154602 76 269 4.0 13.0 0.00 0.00 0.00 30 1002.9
20260903153505 75 253 8.0 13.0 0.00 0.00 0.00 32 1018.4
20260903153101 75 207 5.0 10.0 0.00 0.00 0.00 31 1002.9
20260903153001 75 266 4.0 10.0 0.00 0.00 0.00 32 1018.4
20260903152504 75 247 6.0 10.0 0.00 0.00 0.00 31 1018.4
20260903152007 75 313 5.0 12.0 0.00 0.00 0.00 33 1018.4
20260903151508 74 262 6.0 12.0 0.00 0.00 0.00 32 1018.5
20260903151505 74 262 6.0 12.0 0.00 0.00 0.00 32 1003.0
20260903151006 74 313 5.0 11.0 0.00 0.00 0.00 34 1018.5
20260903150505 74 272 7.0 10.0 0.00 0.00 0.00 33 1018.5
20260903150014 73 288 2.0 11.0 0.00 0.00 0.00 36 1003.2
20260903150008 73 288 3.0 11.0 0.00 0.00 0.00 36 1018.6
20260903145007 73 261 5.0 10.0 0.00 0.00 0.00 34 1018.6
20260903144507 72 261 3.0 9.0 0.00 0.00 0.00 35 1003.2
20260903144006 72 270 4.0 9.0 0.00 0.00 0.00 35 1018.6
20260903143506 72 250 5.0 12.0 0.00 0.00 0.00 34 1018.5
20260903143014 72 247 3.0 12.0 0.00 0.00 0.00 34 1003.2
20260903143007 72 247 4.0 12.0 0.00 0.00 0.00 34 1018.5
20260903142507 71 281 4.0 9.0 0.00 0.00 0.00 35 1018.6
20260903142000 71 211 5.0 9.0 0.00 0.00 0.00 36 1018.5
20260903141507 71 220 3.0 7.0 0.00 0.00 0.00 37 1003.3
20260903140506 69 252 3.0 11.0 0.00 0.00 0.00 37 1018.5
20260903140008 69 257 2.0 7.0 0.00 0.00 0.00 42 1018.5
20260903140004 69 257 1.0 7.0 0.00 0.00 0.00 42 1003.4
20260903135507 68 203 3.0 7.0 0.00 0.00 0.00 40 1018.4
20260903135008 68 188 1.0 5.0 0.00 0.00 0.00 42 1018.5
20260903134506 67 188 3.0 5.0 0.00 0.00 0.00 40 1018.4
20260903134504 67 188 3.0 5.0 0.00 0.00 0.00 40 1003.3
20260903134007 67 188 3.0 4.0 0.00 0.00 0.00 41 1018.3
20260903133506 66 218 2.0 6.0 0.00 0.00 0.00 42 1018.2
20260903133007 66 187 3.0 8.0 0.00 0.00 0.00 41 1018.1
20260903133004 66 187 3.0 8.0 0.00 0.00 0.00 41 1003.0
20260903132007 63 207 4.0 7.0 0.00 0.00 0.00 45 1018.0
20260903131503 63 236 2.0 7.0 0.00 0.00 0.00 45 1002.9
20260903131007 62 184 1.0 5.0 0.00 0.00 0.00 47 1018.0
20260903130505 61 194 4.0 5.0 0.00 0.00 0.00 46 1018.0
20260903130010 61 197 3.0 5.0 0.00 0.00 0.00 47 1018.0
20260903130007 61 197 2.0 5.0 0.00 0.00 0.00 47 1002.9
20260903125506 61 245 2.0 6.0 0.00 0.00 0.00 46 1017.9
20260903125007 61 205 2.0 6.0 0.00 0.00 0.00 45 1017.7
20260903124506 62 173 2.0 4.0 0.00 0.00 0.00 43 1017.8
20260903124504 62 173 1.0 4.0 0.00 0.00 0.00 43 1002.7
20260903124007 64 173 2.0 4.0 0.00 0.00 0.00 42 1017.8
20260903123506 64 173 2.0 4.0 0.00 0.00 0.00 40 1017.8
20260903123007 64 173 1.0 6.0 0.00 0.00 0.00 40 1017.6
20260903123005 64 173 1.0 6.0 0.00 0.00 0.00 40 1002.6
20260903122006 63 186 5.0 8.0 0.00 0.00 0.00 42 1017.5
20260903121503 62 160 6.0 8.0 0.00 0.00 0.00 43 1002.5
20260903121007 62 173 6.0 9.0 0.00 0.00 0.00 44 1017.4
20260903120506 61 149 6.0 10.0 0.00 0.00 0.00 46 1017.3
20260903120011 60 157 6.0 9.0 0.00 0.00 0.00 49 1017.3
20260903120007 60 157 6.0 9.0 0.00 0.00 0.00 49 1002.4
20260903115505 58 150 4.0 9.0 0.00 0.00 0.00 51 1017.3
20260903115009 57 188 1.0 4.0 0.00 0.00 0.00 54 1017.2
20260903114505 58 188 1.0 4.0 0.00 0.00 0.00 53 1017.2
20260903114010 58 188 3.0 5.0 0.00 0.00 0.00 53 1017.2
20260903113505 58 188 3.0 7.0 0.00 0.00 0.00 54 1017.3
20260903113009 57 161 4.0 8.0 0.00 0.00 0.00 54 1017.3
20260903113007 57 161 4.0 8.0 0.00 0.00 0.00 54 1002.3
20260903112006 56 142 6.0 9.0 0.00 0.00 0.00 58 1017.3
20260903111505 56 138 6.0 9.0 0.00 0.00 0.00 59 1017.4
20260903111503 56 138 6.0 9.0 0.00 0.00 0.00 59 1002.4
20260903111007 56 128 1.0 2.0 0.00 0.00 0.00 59 1017.3
20260903110506 55 128 0.0 3.0 0.00 0.00 0.00 61 1017.2
20260903110007 55 128 1.0 3.0 0.00 0.00 0.00 63 1017.1
20260903110005 55 128 1.0 3.0 0.00 0.00 0.00 63 1002.1
20260903105505 55 128 1.0 4.0 0.00 0.00 0.00 64 1017.1
20260903104505 54 128 3.0 4.0 0.00 0.00 0.00 66 1017.1
20260903103505 54 128 2.0 3.0 0.00 0.00 0.00 70 1017.0
20260903103007 54 128 0.0 2.0 0.00 0.00 0.00 69 1017.0
20260903103004 54 128 0.0 2.0 0.00 0.00 0.00 69 1001.9
20260903102506 55 128 0.0 2.0 0.00 0.00 0.00 68 1017.1
20260903102006 56 128 0.0 4.0 0.00 0.00 0.00 67 1017.2
20260903101507 56 128 3.0 4.0 0.00 0.00 0.00 66 1017.2
20260903101505 56 128 3.0 4.0 0.00 0.00 0.00 66 1002.0
20260903101007 57 128 3.0 4.0 0.00 0.00 0.00 65 1017.3
20260903100506 58 240 0.0 3.0 0.00 0.00 0.00 64 1017.2
20260903100006 57 240 2.0 4.0 0.00 0.00 0.00 66 1017.1
20260903095505 57 240 3.0 4.0 0.00 0.00 0.00 67 1017.0
20260903095006 56 240 2.0 5.0 0.00 0.00 0.00 68 1017.0
20260903094505 56 207 1.0 8.0 0.00 0.00 0.00 68 1017.0
20260903094503 56 207 0.0 8.0 0.00 0.00 0.00 68 1001.8
20260903094006 56 207 4.0 8.0 0.00 0.00 0.00 69 1017.1
20260903093505 55 189 3.0 5.0 0.00 0.00 0.00 70 1017.2
20260903093006 55 189 3.0 6.0 0.00 0.00 0.00 70 1002.0
20260903092505 55 198 4.0 7.0 0.00 0.00 0.00 70 1017.2
20260903092007 55 229 3.0 7.0 0.00 0.00 0.00 69 1017.2
20260903091506 56 213 4.0 6.0 0.00 0.00 0.00 70 1017.1
20260903091005 55 213 4.0 7.0 0.00 0.00 0.00 69 1017.1
20260903090505 56 199 2.0 6.0 0.00 0.00 0.00 69 1017.3
20260903090010 55 199 3.0 6.0 0.00 0.00 0.00 71 1001.8
20260903085506 55 199 3.0 4.0 0.00 0.00 0.00 70 1017.3
20260903085005 55 199 0.0 2.0 0.00 0.00 0.00 69 1017.1
20260903084506 56 199 2.0 2.0 0.00 0.00 0.00 69 1016.9
20260903084503 56 199 1.0 2.0 0.00 0.00 0.00 69 1001.5
20260903084007 56 199 1.0 2.0 0.00 0.00 0.00 69 1017.0
20260903083505 56 199 1.0 3.0 0.00 0.00 0.00 69 1017.1
20260903083005 56 199 1.0 4.0 0.00 0.00 0.00 69 1001.7
20260903082505 56 199 3.0 4.0 0.00 0.00 0.00 70 1017.1
20260903082007 55 199 3.0 4.0 0.00 0.00 0.00 71 1017.1
20260903081504 55 199 3.0 4.0 0.00 0.00 0.00 71 1001.9
20260903081006 55 199 3.0 4.0 0.00 0.00 0.00 70 1017.3
20260903080505 56 199 2.0 4.0 0.00 0.00 0.00 69 1017.4
20260903080008 56 199 2.0 4.0 0.00 0.00 0.00 69 1017.3
20260903080004 56 199 1.0 4.0 0.00 0.00 0.00 69 1001.9
20260903075505 56 199 3.0 4.0 0.00 0.00 0.00 69 1017.3
20260903075006 56 199 3.0 4.0 0.00 0.00 0.00 69 1017.4
20260903074505 57 199 3.0 5.0 0.00 0.00 0.00 68 1017.6
20260903074503 57 199 2.0 5.0 0.00 0.00 0.00 68 1002.2
20260903074005 57 199 2.0 4.0 0.00 0.00 0.00 68 1017.6
20260903073505 57 199 2.0 5.0 0.00 0.00 0.00 68 1017.5
20260903073006 57 199 4.0 5.0 0.00 0.00 0.00 67 1017.5
20260903072505 57 199 3.0 5.0 0.00 0.00 0.00 67 1017.6
20260903072006 57 199 4.0 5.0 0.00 0.00 0.00 67 1017.6
20260903071509 57 205 2.0 5.0 0.00 0.00 0.00 67 1002.2
20260903071505 57 205 3.0 5.0 0.00 0.00 0.00 67 1017.6
20260903071006 57 220 3.0 5.0 0.00 0.00 0.00 67 1017.6
20260903070505 58 211 3.0 4.0 0.00 0.00 0.00 66 1017.6
20260903070008 58 211 2.0 3.0 0.00 0.00 0.00 66 1017.6
20260903070005 58 211 2.0 3.0 0.00 0.00 0.00 66 1002.2
20260903065505 58 211 0.0 3.0 0.00 0.00 0.00 67 1017.6
20260903065006 58 211 1.0 4.0 0.00 0.00 0.00 67 1017.6
20260903064505 58 211 3.0 4.0 0.00 0.00 0.00 66 1017.6
20260903064503 58 211 3.0 4.0 0.00 0.00 0.00 66 1002.1
20260903064006 58 211 2.0 6.0 0.00 0.00 0.00 67 1017.7
20260903063506 58 222 4.0 6.0 0.00 0.00 0.00 68 1017.8
20260903063006 57 223 4.0 7.0 0.00 0.00 0.00 69 1018.0
20260903063003 57 223 3.0 7.0 0.00 0.00 0.00 69 1002.5
20260903062505 56 222 3.0 5.0 0.00 0.00 0.00 70 1017.9
20260903062006 56 223 3.0 5.0 0.00 0.00 0.00 70 1017.8
20260903061507 56 223 3.0 5.0 0.00 0.00 0.00 69 1002.3
20260903061007 57 103 2.0 7.0 0.00 0.00 0.00 67 1017.5
20260903060506 57 103 4.0 8.0 0.00 0.00 0.00 67 1017.5
20260903060008 58 82 3.0 7.0 0.00 0.00 0.00 65 1002.1
20260903055505 58 294 3.0 5.0 0.00 0.00 0.00 64 1017.7
20260903055005 59 294 4.0 5.0 0.00 0.00 0.00 64 1017.8
20260903054502 59 294 3.0 5.0 0.00 0.00 0.00 63 1002.3
20260903053504 60 294 1.0 3.0 0.00 0.00 0.00 62 1017.6
20260903053005 60 294 1.0 3.0 0.00 0.00 0.00 62 1017.6
20260903053003 60 294 1.0 3.0 0.00 0.00 0.00 62 1002.1
20260903052006 60 294 1.0 2.0 0.00 0.00 0.00 62 1017.7
20260903051505 60 294 0.0 2.0 0.00 0.00 0.00 62 1017.6
20260903051502 60 294 0.0 2.0 0.00 0.00 0.00 62 1002.0
20260903051006 60 294 0.0 2.0 0.00 0.00 0.00 61 1017.6
20260903050500 61 294 1.0 2.0 0.00 0.00 0.00 59 1017.6
20260903050006 61 294 0.0 1.0 0.00 0.00 0.00 60 1017.6
20260903045506 62 294 0.0 1.0 0.00 0.00 0.00 59 1017.8
20260903045004 62 294 0.0 3.0 0.00 0.00 0.00 59 1017.9
20260903044504 62 294 0.0 3.0 0.00 0.00 0.00 59 1018.0
20260903044005 62 294 1.0 4.0 0.00 0.00 0.00 59 1018.0
20260903043006 62 294 5.0 8.0 0.00 0.00 0.00 59 1002.5
20260903042504 62 310 3.0 4.0 0.00 0.00 0.00 59 1017.9
20260903042006 63 9 1.0 5.0 0.00 0.00 0.00 58 1017.9
20260903041558 63 5 0.0 5.0 0.00 0.00 0.00 57 1002.1
20260903041005 64 23 3.0 5.0 0.00 0.00 0.00 56 1017.7
20260903040504 65 23 3.0 5.0 0.00 0.00 0.00 54 1017.6
20260903040004 66 5 1.0 5.0 0.00 0.00 0.00 53 1001.8
20260903034504 68 343 1.0 5.0 0.00 0.00 0.00 48 1017.6
20260903034502 68 343 1.0 5.0 0.00 0.00 0.00 48 1001.9
20260903034006 68 332 2.0 11.0 0.00 0.00 0.00 47 1017.8
20260903033503 69 5 1.0 12.0 0.00 0.00 0.00 46 1017.8
20260903033004 69 5 3.0 14.0 0.00 0.00 0.00 45 1017.7
20260903033002 69 5 3.0 14.0 0.00 0.00 0.00 45 1001.9
20260903032504 69 319 6.0 14.0 0.00 0.00 0.00 45 1017.5
20260903032005 70 311 8.0 16.0 0.00 0.00 0.00 43 1017.4
20260903031505 71 329 6.0 20.0 0.00 0.00 0.00 41 1001.5
20260903031008 72 301 12.0 20.0 0.00 0.00 0.00 37 1017.0
20260903030504 73 290 10.0 14.0 0.00 0.00 0.00 35 1016.9
20260903030003 73 213 1.0 3.0 0.00 0.00 0.00 32 1001.1
20260903025504 74 213 1.0 5.0 0.00 0.00 0.00 31 1016.7
20260903025005 74 213 3.0 5.0 0.00 0.00 0.00 30 1016.6
20260903024504 75 213 1.0 3.0 0.00 0.00 0.00 30 1016.5
20260903024005 75 213 2.0 4.0 0.00 0.00 0.00 29 1016.4
20260903023504 76 213 2.0 5.0 0.00 0.00 0.00 28 1016.3
20260903023003 76 213 1.0 7.0 0.00 0.00 0.00 28 1000.5
20260903022005 76 205 5.0 8.0 0.00 0.00 0.00 28 1016.1
20260903021503 75 302 3.0 8.0 0.00 0.00 0.00 29 1000.2
20260903021006 74 204 4.0 7.0 0.00 0.00 0.00 31 1015.9
20260903020007 74 273 2.0 4.0 0.00 0.00 0.00 32 1015.9
20260903020003 74 273 2.0 4.0 0.00 0.00 0.00 32 1000.2
20260903015504 74 302 2.0 6.0 0.00 0.00 0.00 32 1015.8
20260903015006 74 201 4.0 8.0 0.00 0.00 0.00 30 1015.6
20260903014504 73 192 4.0 8.0 0.00 0.00 0.00 32 1015.4
20260903014502 73 192 4.0 8.0 0.00 0.00 0.00 32 999.6
20260903014004 71 168 4.0 7.0 0.00 0.00 0.00 34 1015.3
20260903013505 72 129 0.0 3.0 0.00 0.00 0.00 37 1015.4
20260903013006 72 129 2.0 4.0 0.00 0.00 0.00 33 1015.4
20260903013002 72 129 1.0 4.0 0.00 0.00 0.00 33 999.5
20260903012504 73 129 1.0 4.0 0.00 0.00 0.00 32 1015.3
20260903012006 74 129 0.0 1.0 0.00 0.00 0.00 34 1015.3
20260903011503 75 129 0.0 2.0 0.00 0.00 0.00 35 999.4
20260903011007 75 129 1.0 4.0 0.00 0.00 0.00 32 1015.3
20260903010504 75 129 3.0 5.0 0.00 0.00 0.00 33 1015.3
20260903010007 76 129 4.0 8.0 0.00 0.00 0.00 32 1015.3
20260903010003 76 129 3.0 8.0 0.00 0.00 0.00 32 999.4
20260903005504 76 129 3.0 12.0 0.00 0.00 0.00 32 1015.4
20260903005006 77 120 7.0 14.0 0.00 0.00 0.00 31 1015.4
20260903004502 77 119 11.0 14.0 0.00 0.00 0.00 30 999.4
20260903004006 77 157 7.0 13.0 0.00 0.00 0.00 31 1015.2
20260903003505 78 136 8.0 15.0 0.00 0.00 0.00 31 1015.2